星链-3794 (STARLINK-3794 )

导读

STARLINK-3794是美国SpaceX星链(Starlink)星座中的一颗低轨互联网卫星,于2022年5月14日发射升空。星链项目旨在构建全球覆盖的高性价比卫星互联网系统,为偏远、网络欠发达区域提供宽带服务。 这颗卫星运行在近地轨道,属于星链大规模组网的组成部分,依托猎鹰九号火箭完成发射,支撑星链实现全球随地接入高速互联网的目标,目前仍在轨参与星座运营服务。

基本信息
目录编号:
52631
目录名称:
STARLINK-3794
国际标识:
2022-052AK
轨道中心:
EARTH
卫星名称:
星链-3794
卫星全名:
星链-3794 (STARLINK-3794 )
卫星状态:
在轨 (已飞行1575 天)
发射日期:
2022-05-14 UTC
国别 :
美国 (US)
星等 :
--
轨道信息
数据来源 国际轨道数据 AOE轨道数据
星历时间 2026-09-05T11:51:13+0800
12小时前
查看轨道信息
2026-08-30T02:00:00+0800
6天前
查看轨道信息
半长轴 6840.878km 6840.8km
偏心率 0.0001213 0.0001775
轨道倾角 53.161° 53.157°
近地点辐角 93.803° 63.501°
升交点赤经 171.735° 201.703°
平近点角 266.311° 146.108°
近地点 461.911km 461.448km
远地点 463.571km 463.878km
周期 93.849分钟 93.847分钟
每日圈数 15.343875 15.344137
详细信息
固有亮度:
5
最大亮度:
2.5
卫星平台:
Starlink v1.5
覆盖范围:
全球
运营商:
太空探索技术公司
运营商所在国:
美国
制造商(研发单位):
太空探索技术公司
制造商所在国:
美国
使用方式:
暂无
卫星简介
星链(Starlink)计划是由太空探索技术公司(SpaceX)提出的一个巨型低轨卫星互联网星座项目,计划在2019年至2024年间在太空搭建由约1.2万颗卫星组成的“星链”网络,其中1584颗将部署在地球上空550千米处的近地轨道,并从2020年开始工作。该卫星仍在工作。
2D轨道图
3D轨道图
轨道高度分析图
轨道倾角分析图
轨道综合分析图
查看轨道综合分析图
交会数据列表
事件ID 空间交会对象 最接近时刻(TCA) 交会距离 交会风险概率(CRP) 交会风险指数(CRI) 操作
CDM_260906-093505-228205-263125
2026-09-06T
09:35:51+0000
2.508 km
极远距离
1.553977E-6 低风险 0.39
CDM_260905-171605-263105-866122
2026-09-05T
17:16:47+0000
2.881 km
极远距离
1.399457E-6 低风险 0.38
CDM_260906-075705-211005-263122
2026-09-06T
07:57:19+0000
2.970 km
极远距离
1.212835E-6 低风险 0.37
CDM_260906-052105-177005-263123
2026-09-06T
05:21:27+0000
2.821 km
极远距离
9.590325E-7 极低风险 0.35